This is the latest recevied weather packets stored in our database for station/object N6WDO. If no packets are shown the sender has not sent any weather packets the latest 10 day(s).
| Time | Temp. | Humidity | Pressure | Rain* | Wind** | Luminosity | Snow |
|---|---|---|---|---|---|---|---|
| 1777796313 | 13.33° C | 75% | 1012 hPa | 0 mm | - | 0 W/m² | - |
| 1777796009 | 13.33° C | 72% | 1011.9 hPa | 0 mm | - | 0 W/m² | - |
| 1777795706 | 13.33° C | 72% | 1012 hPa | 0 mm | - | 0 W/m² | - |
| 1777795403 | 13.33° C | 71% | 1011.9 hPa | 0 mm | - | 0 W/m² | - |
| 1777795099 | 13.33° C | 73% | 1012 hPa | 0 mm | - | 0 W/m² | - |
| 1777794795 | 13.33° C | 70% | 1011.9 hPa | 0 mm | - | 0 W/m² | - |
| 1777794492 | 13.33° C | 73% | 1011.8 hPa | 0 mm | - | 0 W/m² | - |
| 1777794187 | 13.33° C | 70% | 1011.9 hPa | 0 mm | - | 0 W/m² | - |
| 1777793884 | 13.89° C | 73% | 1011.8 hPa | 0 mm | - | 0 W/m² | - |
| 1777793582 | 13.89° C | 71% | 1011.6 hPa | 0 mm | - | 0 W/m² | - |
| 1777793279 | 13.89° C | 73% | 1011.9 hPa | 0 mm | - | 0 W/m² | - |
| 1777792977 | 14.44° C | 67% | 1011.9 hPa | 0 mm | - | 0 W/m² | - |
| 1777792672 | 14.44° C | 69% | 1011.9 hPa | 0 mm | - | 0 W/m² | - |
| 1777792370 | 13.89° C | 70% | 1012 hPa | 0 mm | - | 0 W/m² | - |
| 1777792066 | 14.44° C | 67% | 1011.7 hPa | 0 mm | - | 0 W/m² | - |
| 1777791764 | 14.44° C | 66% | 1012 hPa | 0 mm | - | 0 W/m² | - |
| 1777791462 | 13.89° C | 70% | 1011.9 hPa | 0 mm | - | 0 W/m² | - |
| 1777791159 | 13.89° C | 73% | 1011.8 hPa | 0 mm | - | 0 W/m² | - |
| 1777790856 | 13.89° C | 73% | 1011.9 hPa | 0 mm | - | 0 W/m² | - |
| 1777790553 | 13.89° C | 73% | 1012.2 hPa | 0 mm | - | 0 W/m² | - |
| 1777790250 | 14.44° C | 69% | 1012 hPa | 0 mm | - | 0 W/m² | - |
| 1777789944 | 14.44° C | 71% | 1012.1 hPa | 0 mm | - | 0 W/m² | - |
| 1777789641 | 14.44° C | 72% | 1012.1 hPa | 0 mm | - | 0 W/m² | - |
| 1777789340 | 15° C | 72% | 1012.2 hPa | 0 mm | - | 0 W/m² | - |
| 1777789036 | 15° C | 67% | 1012.1 hPa | 0 mm | - | 0 W/m² | - |
* Rain latest hour (hover to see other rain measurements)
** Current wind speed in m/s (hover to see current wind gust speed)